TGZ746 ULLI-UGTB

Flight info

Callsign TGZ746
Flight time N/A
Altitude 35000
Route SUGIN T873 NIRGI T73 DESUD T834 BEKIP BULAT L4 UPERI T833 TOGMO M56 ABAGI B105 NIMTA B105 WGD NOKLI GORNU MKL KUFAN
Aircraft B737/M-SDRWY/S

Departure

Time 2026-05-04 09:12
Airport Pulkovo Airport (ULLI)

Arrival

Time N/A
Airport Tbilisi International Airport (UGTB)
Time Latitude Longitude Altitude Speed Heading
2026-05-04 08:48 59.79778 30.26684 77 ft 0 kts 95°
2026-05-04 09:01 59.79772 30.26588 77 ft 1 kts 15°
2026-05-04 09:01 59.79768 30.26586 81 ft 0 kts 10°
2026-05-04 09:05 59.79770 30.26586 77 ft 2 kts
2026-05-04 09:05 59.79800 30.26569 79 ft 5 kts 337°
2026-05-04 09:05 59.79835 30.26552 80 ft 6 kts
2026-05-04 09:05 59.79890 30.26581 80 ft 10 kts 16°
2026-05-04 09:06 59.79955 30.26619 80 ft 10 kts 16°
2026-05-04 09:07 59.80393 30.26838 78 ft 10 kts 315°
2026-05-04 09:08 59.80418 30.26717 80 ft 9 kts 289°
2026-05-04 09:08 59.80439 30.26592 81 ft 10 kts 288°
2026-05-04 09:08 59.80460 30.26454 78 ft 13 kts 285°
2026-05-04 09:08 59.80492 30.26225 80 ft 19 kts 285°
2026-05-04 09:09 59.80534 30.25931 71 ft 24 kts 286°
2026-05-04 09:09 59.80583 30.25604 69 ft 24 kts 287°
2026-05-04 09:09 59.80630 30.25295 72 ft 23 kts 287°
2026-05-04 09:09 59.80677 30.24999 70 ft 22 kts 287°
2026-05-04 09:10 59.80718 30.24710 67 ft 19 kts 287°
2026-05-04 09:10 59.80814 30.24587 65 ft 17 kts 348°
2026-05-04 09:10 59.80929 30.24557 62 ft 16 kts
2026-05-04 09:10 59.80950 30.24708 63 ft 2 kts 107°
2026-05-04 09:11 59.80946 30.24733 61 ft 2 kts 107°
2026-05-04 09:11 59.80942 30.24761 68 ft 16 kts 107°
2026-05-04 09:11 59.80833 30.25476 70 ft 91 kts 107°
2026-05-04 09:11 59.80586 30.27117 81 ft 154 kts 107°
2026-05-04 09:12 59.80231 30.29450 234 ft 194 kts 107°
2026-05-04 09:12 59.79843 30.32111 943 ft 203 kts 108°
2026-05-04 09:14 59.76577 30.53915 5604 ft 261 kts 110°
2026-05-04 09:14 59.76047 30.57426 6270 ft 270 kts 110°
2026-05-04 09:14 59.75519 30.61062 6912 ft 278 kts 109°
2026-05-04 09:14 59.74986 30.64796 7575 ft 286 kts 109°
2026-05-04 09:15 59.74437 30.68645 8247 ft 295 kts 109°
2026-05-04 09:15 59.73867 30.72631 8946 ft 305 kts 109°
2026-05-04 09:15 59.73277 30.76746 9646 ft 315 kts 109°
2026-05-04 09:15 59.72675 30.80930 10290 ft 325 kts 109°
2026-05-04 09:17 59.66957 31.20149 14516 ft 422 kts 109°
2026-05-04 09:18 59.66002 31.25593 15053 ft 427 kts 118°
2026-05-04 09:18 59.64517 31.30746 15758 ft 426 kts 128°
2026-05-04 09:18 59.62836 31.35500 16478 ft 428 kts 129°
2026-05-04 09:18 59.61091 31.40325 17135 ft 433 kts 129°
2026-05-04 09:19 59.59329 31.45181 17789 ft 437 kts 129°
2026-05-04 09:19 59.57552 31.50102 18370 ft 442 kts 129°
2026-05-04 09:19 59.55774 31.55069 18946 ft 445 kts 128°
2026-05-04 09:19 59.53987 31.60084 19511 ft 449 kts 128°
2026-05-04 09:20 59.52187 31.65142 20083 ft 452 kts 128°
2026-05-04 09:20 59.50375 31.70223 20631 ft 455 kts 128°
2026-05-04 09:20 59.48542 31.75352 21166 ft 459 kts 128°
2026-05-04 09:20 59.46697 31.80501 21682 ft 462 kts 128°
2026-05-04 09:21 59.44832 31.85693 22198 ft 466 kts 128°
2026-05-04 09:21 59.42958 31.90895 22698 ft 469 kts 128°
2026-05-04 09:21 59.41061 31.96145 23163 ft 473 kts 129°
2026-05-04 09:21 59.39145 32.01439 23587 ft 476 kts 128°
2026-05-04 09:22 59.37241 32.06687 23963 ft 480 kts 129°
2026-05-04 09:22 59.35299 32.12029 24356 ft 483 kts 129°
2026-05-04 09:22 59.33342 32.17398 24735 ft 486 kts 129°
2026-05-04 09:22 59.31367 32.22805 25093 ft 489 kts 129°
2026-05-04 09:23 59.29379 32.28234 25443 ft 492 kts 129°
2026-05-04 09:23 59.27376 32.33694 25801 ft 494 kts 129°
2026-05-04 09:23 59.25364 32.39164 26156 ft 497 kts 129°
2026-05-04 09:23 59.23340 32.44655 26491 ft 500 kts 129°
2026-05-04 09:25 59.08868 32.83552 28987 ft 508 kts 130°
2026-05-04 09:25 59.06786 32.89095 29434 ft 508 kts 130°
2026-05-04 09:26 59.04697 32.94629 29869 ft 507 kts 131°
2026-05-04 09:26 59.02413 32.99792 30223 ft 502 kts 139°
2026-05-04 09:26 58.99928 33.04519 30604 ft 500 kts 140°
2026-05-04 09:26 58.97396 33.09149 30920 ft 500 kts 141°
2026-05-04 09:27 58.94847 33.13758 31255 ft 501 kts 141°
2026-05-04 09:27 58.92304 33.18369 31606 ft 500 kts 141°
2026-05-04 09:27 58.89776 33.22986 31949 ft 500 kts 140°
2026-05-04 09:27 58.87257 33.27619 32266 ft 501 kts 140°
2026-05-04 09:28 58.84730 33.32285 32567 ft 501 kts 140°
2026-05-04 09:28 58.82214 33.36939 32883 ft 501 kts 140°
2026-05-04 09:28 58.79696 33.41594 33187 ft 501 kts 140°
2026-05-04 09:28 58.77172 33.46250 33506 ft 501 kts 140°
2026-05-04 09:29 58.74650 33.50891 33819 ft 501 kts 140°
2026-05-04 09:29 58.72136 33.55506 34142 ft 499 kts 140°
2026-05-04 09:29 58.69660 33.60041 34491 ft 496 kts 140°
2026-05-04 09:29 58.67159 33.64609 34793 ft 495 kts 140°
2026-05-04 09:30 58.62119 33.73780 34809 ft 500 kts 139°
2026-05-04 09:30 58.57079 33.82918 34804 ft 495 kts 140°
2026-05-04 09:31 58.52076 33.91953 34810 ft 493 kts 140°
2026-05-04 09:31 58.47115 34.00871 34814 ft 492 kts 140°
2026-05-04 09:32 58.42124 34.09809 34819 ft 491 kts 140°
2026-05-04 09:34 58.21790 34.45009 34828 ft 495 kts 146°
2026-05-04 09:34 58.16238 34.52779 34829 ft 496 kts 147°
2026-05-04 09:35 58.10661 34.60496 34828 ft 497 kts 146°
2026-05-04 09:35 58.05084 34.68202 34835 ft 496 kts 147°
2026-05-04 09:37 57.82479 34.97987 34855 ft 502 kts 148°
2026-05-04 09:38 57.76758 35.05493 34841 ft 502 kts 147°
2026-05-04 09:38 57.71040 35.12966 34846 ft 501 kts 147°
2026-05-04 09:39 57.65311 35.20421 34851 ft 501 kts 148°
2026-05-04 09:39 57.60559 35.26580 34853 ft 500 kts 148°
2026-05-04 09:40 57.53910 35.35165 34857 ft 500 kts 148°
2026-05-04 09:40 57.48192 35.42517 34858 ft 499 kts 148°
2026-05-04 09:42 57.26259 35.70457 34863 ft 499 kts 147°
2026-05-04 09:43 57.20530 35.77687 34864 ft 499 kts 148°
2026-05-04 09:43 57.14796 35.84896 34867 ft 499 kts 147°
2026-05-04 09:44 57.09054 35.92088 34868 ft 499 kts 147°
2026-05-04 09:46 56.86105 36.20558 34872 ft 499 kts 147°
2026-05-04 09:46 56.80349 36.27633 34871 ft 499 kts 147°
2026-05-04 09:47 56.74588 36.34686 34878 ft 499 kts 147°
2026-05-04 09:49 56.51522 36.62664 34880 ft 498 kts 147°
2026-05-04 09:51 56.31363 36.86777 34888 ft 497 kts 147°
2026-05-04 09:51 56.25595 36.93620 34901 ft 496 kts 147°
2026-05-04 09:52 56.19832 37.00431 34887 ft 495 kts 147°
2026-05-04 09:52 56.14077 37.07209 34899 ft 494 kts 147°
2026-05-04 09:53 56.08366 37.13911 34901 ft 493 kts 147°
2026-05-04 09:53 56.02624 37.20623 34913 ft 493 kts 147°
2026-05-04 09:54 55.96882 37.27313 34912 ft 492 kts 147°
2026-05-04 09:54 55.91147 37.33970 34912 ft 491 kts 147°
2026-05-04 09:55 55.85413 37.40601 34914 ft 491 kts 147°
2026-05-04 09:55 55.79677 37.47213 34911 ft 490 kts 147°
2026-05-04 09:56 55.73983 37.53751 35139 ft 489 kts 147°
2026-05-04 09:56 55.71145 37.57003 35567 ft 484 kts 148°
2026-05-04 09:56 55.68331 37.60221 35989 ft 479 kts 148°
2026-05-04 09:56 55.65534 37.63414 36370 ft 476 kts 148°
2026-05-04 09:57 55.62758 37.66578 36675 ft 475 kts 148°
2026-05-04 09:57 55.59972 37.69747 36905 ft 476 kts 148°
2026-05-04 09:57 55.57179 37.72918 37107 ft 476 kts 149°
2026-05-04 09:57 55.54396 37.76072 37356 ft 476 kts 149°
2026-05-04 09:58 55.51613 37.79222 37631 ft 475 kts 149°
2026-05-04 09:58 55.48833 37.82362 37859 ft 474 kts 149°
2026-05-04 09:58 55.46047 37.85504 38058 ft 475 kts 149°
2026-05-04 10:00 55.26622 38.07266 39402 ft 471 kts 149°
2026-05-04 10:00 55.23890 38.10306 39553 ft 471 kts 149°
2026-05-04 10:02 55.04516 38.31719 40512 ft 470 kts 149°
2026-05-04 10:04 54.85117 38.52916 40946 ft 471 kts 149°
2026-05-04 10:04 54.79566 38.58937 40947 ft 470 kts 149°
2026-05-04 10:05 54.74046 38.64904 40946 ft 470 kts 149°
2026-05-04 10:05 54.68494 38.70888 40947 ft 470 kts 149°
2026-05-04 10:06 54.62946 38.76846 40946 ft 469 kts 149°
2026-05-04 10:06 54.57400 38.82784 40937 ft 469 kts 149°
2026-05-04 10:08 54.40927 39.00923 40929 ft 469 kts 135°
2026-05-04 10:08 54.38847 39.05219 40957 ft 468 kts 123°
2026-05-04 10:08 54.37334 39.10164 40944 ft 468 kts 109°
2026-05-04 10:08 54.36345 39.15478 40974 ft 467 kts 106°
2026-05-04 10:09 54.34535 39.26116 40956 ft 467 kts 105°
2026-05-04 10:09 54.32691 39.36808 40944 ft 468 kts 106°
2026-05-04 10:10 54.30786 39.47500 40947 ft 469 kts 107°
2026-05-04 10:10 54.28852 39.58161 40950 ft 469 kts 107°
2026-05-04 10:11 54.26901 39.68834 40956 ft 470 kts 107°
2026-05-04 10:11 54.24952 39.79437 40951 ft 470 kts 107°
2026-05-04 10:12 54.22981 39.90111 40947 ft 471 kts 107°
2026-05-04 10:12 54.21001 40.00776 40957 ft 471 kts 107°
2026-05-04 10:13 54.19011 40.11428 40954 ft 471 kts 107°
2026-05-04 10:13 54.17008 40.22091 40944 ft 471 kts 107°
2026-05-04 10:14 54.15002 40.32713 40962 ft 470 kts 108°
2026-05-04 10:16 54.06900 40.75012 40967 ft 469 kts 108°
2026-05-04 10:16 54.04849 40.85574 40954 ft 469 kts 108°
2026-05-04 10:17 54.02790 40.96117 40946 ft 470 kts 108°
2026-05-04 10:19 53.94483 41.38082 40959 ft 469 kts 108°
2026-05-04 10:19 53.92383 41.48551 40962 ft 469 kts 108°
2026-05-04 10:20 53.90271 41.59020 40966 ft 469 kts 109°
2026-05-04 10:20 53.88150 41.69483 40972 ft 469 kts 109°
2026-05-04 10:21 53.86018 41.79940 40962 ft 469 kts 109°
2026-05-04 10:21 53.83879 41.90380 40978 ft 469 kts 109°
2026-05-04 10:22 53.80649 42.06041 40974 ft 470 kts 109°
2026-05-04 10:23 53.78499 42.16399 40973 ft 470 kts 109°
2026-05-04 10:25 53.69741 42.58060 40984 ft 470 kts 110°
2026-05-04 10:25 53.68426 42.63094 40952 ft 470 kts 123°
2026-05-04 10:25 53.66416 42.67314 40998 ft 466 kts 138°
2026-05-04 10:25 53.63848 42.70614 40970 ft 464 kts 153°
2026-05-04 10:26 53.60921 42.72878 41012 ft 462 kts 158°
2026-05-04 10:26 53.54959 42.77004 40994 ft 464 kts 159°
2026-05-04 10:27 53.48992 42.81185 40988 ft 465 kts 158°
2026-05-04 10:27 53.43018 42.85457 40988 ft 467 kts 158°
2026-05-04 10:28 53.38042 42.89031 41001 ft 470 kts 158°
2026-05-04 10:28 53.32000 42.93359 41000 ft 474 kts 158°
2026-05-04 10:29 53.25914 42.97701 40999 ft 476 kts 158°
2026-05-04 10:29 53.19844 43.02017 40999 ft 477 kts 158°
2026-05-04 10:30 53.13732 43.06349 41002 ft 477 kts 158°
2026-05-04 10:30 53.07654 43.10792 40996 ft 477 kts 157°
2026-05-04 10:31 53.01612 43.15316 41008 ft 476 kts 157°
2026-05-04 10:32 52.80524 43.30915 41008 ft 473 kts 157°
2026-05-04 10:33 52.74505 43.35324 41018 ft 473 kts 157°
2026-05-04 10:33 52.68485 43.39721 41013 ft 473 kts 157°
2026-05-04 10:34 52.62466 43.44105 41021 ft 472 kts 158°
2026-05-04 10:34 52.56485 43.48449 41014 ft 472 kts 158°
2026-05-04 10:35 52.50473 43.52801 41026 ft 472 kts 158°
2026-05-04 10:35 52.44456 43.57143 41014 ft 472 kts 158°
2026-05-04 10:36 52.38443 43.61470 41030 ft 472 kts 158°
2026-05-04 10:36 52.32422 43.65790 41020 ft 472 kts 158°
2026-05-04 10:37 52.26418 43.70086 40983 ft 469 kts 158°
2026-05-04 10:37 52.20438 43.74351 41019 ft 469 kts 158°
2026-05-04 10:39 51.99533 43.89161 41034 ft 469 kts 158°
2026-05-04 10:40 51.93538 43.93381 41037 ft 469 kts 158°
2026-05-04 10:40 51.87534 43.97595 41034 ft 469 kts 158°
2026-05-04 10:41 51.81576 44.01765 41039 ft 470 kts 158°
2026-05-04 10:41 51.75566 44.05958 41027 ft 470 kts 158°
2026-05-04 10:42 51.69560 44.10136 41036 ft 469 kts 158°
2026-05-04 10:42 51.63559 44.14300 41033 ft 470 kts 158°
2026-05-04 10:43 51.57554 44.18454 41041 ft 470 kts 158°
2026-05-04 10:45 51.33256 44.33444 41043 ft 465 kts 178°
2026-05-04 10:45 51.26804 44.33533 41039 ft 464 kts 182°
2026-05-04 10:46 51.20351 44.33440 41034 ft 464 kts 182°
2026-05-04 10:46 51.13895 44.33405 41037 ft 464 kts 182°
2026-05-04 10:47 51.07425 44.33420 41036 ft 464 kts 182°
2026-05-04 10:47 51.00965 44.33450 41045 ft 464 kts 182°